Regional Weather Roundup
Issued by NWS

Home | Current Version | Previous Version | Text Only | Print | Product List | Glossary On
Versions: 1 2 3 4 5 6 7 8 9 10 11 12 13 14 15 16 17 18 19 20 21 22 23 24 25 26 27 28 29 30 31 32 33 34 35 36 37 38 39 40 41 42 43 44 45 46 47 48 49
000
ASUS45 KBOU 221607
RWRCO

WEATHER ROUNDUP FOR COLORADO
NATIONAL WEATHER SERVICE DENVER/BOULDER CO
900 AM MST MON DEC 22 2014

NOTE: "FAIR" INDICATES FEW OR NO CLOUDS BELOW 12000 FEET WITH NO
SIGNIFICANT WEATHER AND/OR OBSTRUCTIONS TO VISIBILITY.

COZ001>005-013-030-031-221700-
...NORTHWEST COLORADO...

CITY           SKY/WX    TMP DP  RH WIND       PRES   REMARKS
CRAIG          CLOUDY    31  26  82 SW16      29.83F WCI  20
HAYDEN         CLOUDY    30  25  80 W18       29.81S WCI  18
MEEKER         CLOUDY    33  27  78 W6        29.86S WCI  28
MOUNT WERNER   NOT AVBL
STEAMBOAT SPGS CLOUDY    29  23  79 W14G22    29.80R WCI  18
WALDEN         CLOUDY    18  12  79 E7        29.73F WCI   8
$$

COZ006>008-011-221700-
...WEST CENTRAL VALLEYS...

CITY           SKY/WX    TMP DP  RH WIND       PRES   REMARKS
GRAND JUNCTION CLOUDY    33  33 100 NW3       29.86S
MONTROSE       CLOUDY    36  33  89 SE6       29.86F
EAGLE          CLOUDY    30  28  93 E6        29.84R WCI  24
RIFLE          CLOUDY    34  32  92 CALM      29.86F
DELTA          CLOUDY    37  35  92 CALM      29.86S
NUCLA          DRIZZLE   36  34  93 E6        29.94S
$$

COZ017>023-064>068-221700-
...SOUTHWEST COLORADO...

CITY           SKY/WX    TMP DP  RH WIND       PRES   REMARKS
DURANGO        CLOUDY    40  31  70 W23G30    29.85R
CORTEZ         PTSUNNY   39  33  79 CALM      29.92F
PAGOSA SPRINGS CLOUDY    32  32 100 SE3       29.83F
TELLURIDE      NOT AVBL
WOLF CREEK PAS SNOW      19  19 100 MISG      29.84S VSB 1/4
$$

COZ009-010-012-014-032>034-037-058>063-221700-
...CENTRAL COLORADO...

CITY           SKY/WX    TMP DP  RH WIND       PRES   REMARKS
ASPEN          LGT SNOW  27  24  89 N8        29.80F FOG     WCI  19
BUENA VISTA    CLOUDY    28  22  81 CALM      29.76S
COPPER MTN     CLOUDY    18  10  73 W23       29.70F WCI   0
BERTHOUD PASS  HVY SNOW   7   1  78 MISG      29.63S VSB<1/4
COTTONWOOD PAS LGT SNOW  28  19  69 N5G21     29.74S WCI  23
GUNNISON       CLOUDY    28  25  86 CALM      29.81S VSB 3/4
KREMMLING      LGT SNOW  28  23  80 CALM      29.78F VSB 1
LEADVILLE      LGT SNOW  18  15  88 NW8       29.72F VSB 1   WCI   8
MONARCH PASS   CLOUDY    16  12  86 MISG      29.84F
SALIDA         CLOUDY    32  27  80 W3        29.83F
SUNLIGHT       CLOUDY   N/A N/A N/A MISG      29.82S
WILKERSON PASS LGT SNOW  14  12  92 NW7G22    29.74S WCI   4
$$

COZ069>075-221700-
...SAN LUIS VALLEY/SANGRE DE CRISTO MOUNTAINS...

CITY           SKY/WX    TMP DP  RH WIND       PRES   REMARKS
ALAMOSA        CLOUDY    33  29  85 NE13      29.76S WCI  24
LA VETA PASS   LGT SNOW  27  21  80 W7        29.76S WCI  19
SAGUACHE       LGT SNOW  30  28  93 NW6       29.78S WCI  24
$$

COZ035-036-038>040-221700-
...NORTHERN COLORADO FRONT RANGE...

CITY           SKY/WX    TMP DP  RH WIND       PRES   REMARKS
DENVER INTL AP CLOUDY    31  26  82 S9        29.72F WCI  23
DMNS CITY PARK   N/A     33  29  85 SE3       29.72S
AURORA         NOT AVBL
FRONT RANGE AP PTSUNNY   32  27  80 E5        29.73F WCI  27
ERIE MUNI ARPT   N/A     32  28  85 CALM      29.72S
BOULDER MUN AP PTSUNNY   36  21  55 SW5       29.71S
CENTENNIAL     PTSUNNY   31  26  82 SW6       29.72F WCI  25
BROOMFIELD     PTSUNNY   32  27  80 W3        29.71F
FORT COLLINS   PTSUNNY   34  19  55 E7        29.73S WCI  28
LONGMONT       PTSUNNY   34  28  77 NE6       29.73F WCI  29
$$

COZ041-046-047-076>085-087-088-221700-
...PIKES PEAK/PALMER DIVIDE AND SOUTHERN FOOTHILLS...

CITY           SKY/WX    TMP DP  RH WIND       PRES   REMARKS
COLO. SPRINGS  PTSUNNY   32  25  75 N3        29.76S
A. F. ACADEMY  NOT AVBL
ELLICOTT       NOT AVBL
FALCON         PTSUNNY   31  20  64 NW9       29.74F WCI  23
FORT CARSON    NOT AVBL
LIMON          MOSUNNY   29  24  82 W7        29.75S WCI  22
MONUMENT HILL  CLOUDY    27  21  80 W6        29.72F WCI  20
TRINIDAD       LGT SNOW  31  30  96 S6        29.80S VSB 1   WCI  25
$$

COZ042>045-048>051-090-091-221700-
...NORTHEAST COLORADO...

CITY           SKY/WX    TMP DP  RH WIND       PRES   REMARKS
GREELEY ARPT   PTSUNNY   34  19  55 N12       29.71F WCI  25
AKRON          MOSUNNY   31  26  82 W10       29.71F WCI  22
BURLINGTON     MOSUNNY   37  28  70 NW20      29.72S
WRAY           PTSUNNY   36  29  77 W14G20    29.69F
STERLING       MOSUNNY   32  28  86 NW5       29.71S WCI  27
HOLYOKE        PTSUNNY   37  28  70 NW12G22   29.67S
FORT MORGAN    MOSUNNY   29  21  73 W10       29.72F WCI  20
$$

COZ086-089-092>099-221700-
...SOUTHEAST COLORADO...

CITY           SKY/WX    TMP DP  RH WIND       PRES   REMARKS
PUEBLO         CLOUDY    36  31  82 W3        29.76F
LA JUNTA       CLOUDY    40  26  57 W5        29.78S
LAMAR          MOSUNNY   40  28  62 NW8       29.75R
SPRINGFIELD      N/A     41  28  60 NW20      29.76R
$$


USA.gov is the U.S. government's official web portal to all federal, state and local government web resources and services.